Regional Weather Roundup
Issued by NWS

Home | Current Version | Previous Version | Graphics & Text | Print | Product List | Glossary On
Versions: 1 2 3 4 5 6 7 8 9 10 11 12 13 14 15 16 17 18 19 20 21 22 23 24 25 26 27 28 29 30 31 32 33 34 35 36 37 38 39 40 41 42 43 44 45 46 47 48 49 50
000
ASUS43 KIND 020159
RWRIN

WEATHER ROUNDUP FOR INDIANA
NATIONAL WEATHER SERVICE INDIANAPOLIS IN
1000 PM EDT SUN MAY 01 2016

NOTE: "FAIR" INDICATES FEW OR NO CLOUDS BELOW 12,000 FEET WITH NO
SIGNIFICANT WEATHER AND/OR OBSTRUCTIONS TO VISIBILITY.

* - STATION DOES NOT REPORT WEATHER SUCH AS PRECIPITATION OR FOG.

+ - STATION NOT QUALITY CONTROLLED BY THE NATIONAL WEATHER SERVICE.
    USE DATA WITH CAUTION...ESPECIALLY DEWPOINT AND RELATIVE
    HUMIDITY OBSERVATIONS.

INZ001>003-010>013-019-020-020300-
NORTHWEST INDIANA

CITY           SKY/WX    TMP DP  RH WIND       PRES   REMARKS
GARY /AIRPORT/ TSTM      46  46 100 N10       29.96R
VALPARAISO     CLOUDY    52  48  87 NE10      29.93R

$$

LMZ046-743>745-020300-
SOUTHERN LAKE MICHIGAN

STATION/POSITION TIME  TEMP    WIND        PRES    WAVE
                       AIR SEA DIR/SP/G            HT
                 (UTC) (F)     (DEG/KT/KT) (MB)    (FT)
BURNS HARBOR     0118   47      70/ 13/ 22 1013.9F
MICHIGAN CITY    0100   47      30/ 16/ 17   N/A

$$

INZ004-005-014>016-021>024-020300-
NORTH CENTRAL INDIANA

CITY           SKY/WX    TMP DP  RH WIND       PRES   REMARKS
GOSHEN         CLOUDY    52  48  86 NE12      29.93F
SOUTH BEND     CLOUDY    51  47  86 NE9       29.94F

$$

INZ006>009-017-018-025>027-020300-
NORTHEAST INDIANA

CITY           SKY/WX    TMP DP  RH WIND       PRES   REMARKS
ANGOLA *+      CLOUDY    50  50 100 NE9       29.95S
FORT WAYNE     CLOUDY    54  51  90 E15       29.91F

$$

INZ028-029-035-036-043>045-051>053-020300-
WEST CENTRAL INDIANA

CITY           SKY/WX    TMP DP  RH WIND       PRES   REMARKS
CRAWFORDSVL +  CLOUDY    57  57 100 N7        29.89R
GREENCASTLE +  MOCLDY    59  59 100 W3        29.87R
LAFAYETTE      LGT RAIN  57  55  93 NW6       29.90R
TERRE HAUTE    PTCLDY    63  56  78 NW8       29.87R

$$

INZ030>032-037>040-046>048-054>057-064-065-020300-
CENTRAL INDIANA

CITY           SKY/WX    TMP DP  RH WIND       PRES   REMARKS
COLUMBUS       PTCLDY    61  61 100 S6        29.86S
INDIANAPOLIS   TSTM      61  56  83 S22       29.84R
-EAGLE CREEK   LGT RAIN  64  60  87 SW8       29.85R
KOKOMO *+      CLOUDY    57  54  88 E16       29.87R THUNDER
SHELBYVILLE    CLEAR     65  58  78 S17       29.82F

$$

INZ033-034-041-042-049-050-058-059-020300-
EAST CENTRAL INDIANA

CITY           SKY/WX    TMP DP  RH WIND       PRES   REMARKS
MUNCIE         LGT RAIN  61  57  87 E14       29.84F

$$

INZ060-061-067>069-081>083-085>088-020300-
SOUTHWEST INDIANA

CITY           SKY/WX    TMP DP  RH WIND       PRES   REMARKS
EVANSVILLE     CLEAR     69  62  78 SW8       29.89R
HUNTINGBURG *+ MOCLDY    66  55  68 S8        29.87S

$$

INZ062-063-066-070>080-084-089>092-020300-
SOUTH CENTRAL AND SOUTHEAST INDIANA

CITY           SKY/WX    TMP DP  RH WIND       PRES   REMARKS
BLOOMINGTON    PTCLDY    64  57  78 CALM      29.84F
MADISON *+     CLEAR     63  61  94 SE5       29.89F
SEYMOUR +      CLEAR     64  63  94 CALM      29.87S

$$




USA.gov is the U.S. government's official web portal to all federal, state and local government web resources and services.